Weather History for LFMV - July, 2013

Change the Weather History Date:

Sunday, July 21, 2013

  Actual Average (LFTW) Record (LFTW)
Temperature  
Mean Temperature 78 °F -  
Max Temperature 95 °F 85 °F 97 °F (2015)
Min Temperature 62 °F 66 °F 60 °F (2001)
Cooling Degree Days 14    
Growing Degree Days 28 (Base 50)    
Moisture  
Dew Point 61 °F    
Average Humidity 59    
Maximum Humidity 94    
Minimum Humidity 26    
Precipitation  
Precipitation 0.00 in - - ()
Sea Level Pressure  
Sea Level Pressure 30.02 in    
Wind  
Wind Speed 3 mph ()    
Max Wind Speed 12 mph    
Max Gust Speed -    
Visibility 6.2 miles    
Events      
Averages and records for this station are not official NWS values.
T = Trace of Precipitation, MM = Missing Value Source: Averaged Metar Reports

Daily Weather History Graph

Daily Weather History Graph

Search for Another Location

Airport or City:

Trip Planner

Search our weather history database for the weather conditions in past years. The results will help you decide how hot, cold, wet, or windy it might be!

Date:

Astronomy

Jul. 21, 2013 Rise Set
Actual Time 6:17 AM CEST 9:15 PM CEST
Civil Twilight 5:43 AM CEST 9:49 PM CEST
Nautical Twilight 4:59 AM CEST 10:33 PM CEST
Astronomical Twilight 4:07 AM CEST 11:24 PM CEST
Moon 7:58 PM CEST (7/21) 4:45 AM CEST (7/21)
Length of Visible Light 16h 06m
Length of Day
14h 58m
Waxing Gibbous, 97% of the Moon is Illuminated
Jul 21
Waxing Gibbous
Jul 22
Full
Jul 29
Last Quarter
Aug 6
New
Aug 14
First Quarter

Hourly Weather History & Observations

Time (CEST) Temp. Heat Index Dew Point Humidity Pressure Visibility Wind Dir Wind Speed Gust Speed Precip Events Conditions
12:00 AM 71.6 °F - 64.4 °F 78% 30.01 in 6.2 mi South 3.5 mph - N/A   Unknown
12:30 AM 71.6 °F - 66.2 °F 83% 30.01 in 6.2 mi East 4.6 mph - N/A   Unknown
1:00 AM 71.6 °F - 64.4 °F 78% 30.01 in 6.2 mi East 3.5 mph - N/A   Unknown
1:30 AM 69.8 °F - 64.4 °F 83% 30.01 in 6.2 mi Variable 1.2 mph - N/A   Unknown
2:00 AM 69.8 °F - 64.4 °F 83% 30.01 in 6.2 mi South 1.2 mph - N/A   Unknown
2:30 AM 68.0 °F - 62.6 °F 83% 30.01 in 6.2 mi SSE 1.2 mph - N/A   Unknown
3:00 AM 66.2 °F - 62.6 °F 88% 30.01 in 6.2 mi Variable 3.5 mph - N/A   Unknown
3:30 AM 66.2 °F - 62.6 °F 88% 30.01 in 6.2 mi Calm Calm - N/A   Unknown
4:00 AM 66.2 °F - 62.6 °F 88% 30.01 in 6.2 mi Calm Calm - N/A   Unknown
4:30 AM 66.2 °F - 64.4 °F 94% 30.01 in 6.2 mi East 3.5 mph - N/A   Unknown
5:00 AM 64.4 °F - 62.6 °F 94% 30.01 in 6.2 mi Calm Calm - N/A   Unknown
5:30 AM 64.4 °F - 62.6 °F 94% 30.01 in 6.2 mi Variable 2.3 mph - N/A   Unknown
6:00 AM 62.6 °F - 60.8 °F 94% 30.01 in 6.2 mi Calm Calm - N/A   Unknown
6:30 AM 64.4 °F - 62.6 °F 94% 30.01 in 6.2 mi Calm Calm - N/A   Unknown
7:00 AM 66.2 °F - 62.6 °F 88% 30.01 in 6.2 mi Calm Calm - N/A   Unknown
7:30 AM 68.0 °F - 64.4 °F 88% 30.04 in 6.2 mi Calm Calm - N/A   Unknown
8:00 AM 71.6 °F - 64.4 °F 78% 30.04 in 6.2 mi Calm Calm - N/A   Unknown
8:30 AM 75.2 °F - 64.4 °F 69% 30.04 in 6.2 mi Variable 2.3 mph - N/A   Unknown
9:00 AM 77.0 °F - 64.4 °F 65% 30.04 in 6.2 mi Variable 2.3 mph - N/A   Unknown
9:30 AM 78.8 °F - 64.4 °F 61% 30.04 in 6.2 mi Variable 2.3 mph - N/A   Unknown
10:00 AM 78.8 °F - 64.4 °F 61% 30.04 in 6.2 mi Variable 3.5 mph - N/A   Unknown
10:30 AM 80.6 °F 82.3 °F 64.4 °F 58% 30.04 in 6.2 mi NNE 3.5 mph - N/A   Unknown
11:00 AM 84.2 °F 85.0 °F 62.6 °F 48% 30.04 in 6.2 mi Variable 3.5 mph - N/A   Unknown
11:30 AM 84.2 °F 85.0 °F 62.6 °F 48% 30.04 in 6.2 mi Variable 2.3 mph - N/A   Unknown
12:00 PM 86.0 °F 86.1 °F 60.8 °F 43% 30.04 in 6.2 mi Variable 3.5 mph - N/A   Unknown
12:30 PM 87.8 °F 87.1 °F 59.0 °F 38% 30.04 in 6.2 mi NNE 4.6 mph - N/A   Unknown
1:00 PM 89.6 °F 89.5 °F 60.8 °F 38% 30.04 in 6.2 mi North 4.6 mph - N/A   Unknown
1:30 PM 91.4 °F 90.7 °F 59.0 °F 34% 30.04 in 6.2 mi Variable 4.6 mph - N/A   Unknown
2:00 PM 91.4 °F 90.7 °F 59.0 °F 34% 30.04 in 6.2 mi SW 5.8 mph - N/A   Unknown
2:30 PM 91.4 °F 90.7 °F 59.0 °F 34% 30.01 in 6.2 mi NW 3.5 mph - N/A   Unknown
3:00 PM 93.2 °F 91.9 °F 57.2 °F 30% 30.01 in 6.2 mi Variable 3.5 mph - N/A   Unknown
3:30 PM 93.2 °F 91.9 °F 57.2 °F 30% 30.01 in 6.2 mi Variable 5.8 mph - N/A   Unknown
4:00 PM 93.2 °F 91.9 °F 57.2 °F 30% 30.01 in 6.2 mi Variable 3.5 mph - N/A   Unknown
4:30 PM 95.0 °F 93.0 °F 55.4 °F 26% 29.98 in 6.2 mi SSW 6.9 mph - N/A   Unknown
5:00 PM 95.0 °F 93.7 °F 57.2 °F 28% 29.98 in 6.2 mi West 9.2 mph - N/A   Unknown
5:30 PM 93.2 °F 91.9 °F 57.2 °F 30% 29.98 in 6.2 mi WSW 11.5 mph - N/A   Unknown
6:00 PM 93.2 °F 92.6 °F 59.0 °F 32% 29.98 in 6.2 mi SW 10.4 mph - N/A   Unknown
6:30 PM 91.4 °F 90.7 °F 59.0 °F 34% 29.98 in 6.2 mi WSW 10.4 mph - N/A   Unknown
7:00 PM 91.4 °F 90.7 °F 59.0 °F 34% 29.98 in 6.2 mi SW 11.5 mph - N/A   Unknown
7:30 PM 89.6 °F 88.1 °F 57.2 °F 33% 29.98 in 6.2 mi WSW 10.4 mph - N/A   Unknown
8:00 PM 87.8 °F 87.6 °F 60.8 °F 40% 30.01 in 6.2 mi WSW 10.4 mph - N/A   Unknown
8:30 PM 86.0 °F 86.1 °F 60.8 °F 43% 30.01 in 6.2 mi WSW 6.9 mph - N/A   Unknown
9:00 PM 84.2 °F 83.8 °F 59.0 °F 42% 30.01 in 6.2 mi WSW 5.8 mph - N/A   Unknown
9:30 PM 82.4 °F 82.0 °F 57.2 °F 42% 30.01 in 6.2 mi SW 6.9 mph - N/A   Unknown
10:00 PM 78.8 °F - 59.0 °F 51% 30.01 in 6.2 mi Variable 3.5 mph - N/A   Unknown
10:30 PM 77.0 °F - 60.8 °F 57% 30.04 in 6.2 mi SSE 5.8 mph - N/A   Unknown
11:00 PM 75.2 °F - 60.8 °F 61% 30.04 in 6.2 mi SE 3.5 mph - N/A   Unknown
11:30 PM 73.4 °F - 60.8 °F 65% 30.04 in 6.2 mi South 4.6 mph - N/A   Unknown